Tracking 33199 objects as of 16-Feb-2026
HD Live streaming from Space Station
objects crossing your sky now

USA 452

Track USA 452 now!
10-day predictions


NORAD ID: 62351
Int'l Code: 2024-243M
Perigee: 582.1 km
Apogee: 586.3 km
Inclination: 70.0 °
Period: 96.2 minutes
Semi major axis: 6955 km
RCS: Unknown
Launch date: December 17, 2024
Source: United States (US)
Launch site: AIR FORCE WESTERN TEST RANGE (AFWTR)
Your satellite tracking list
Your tracking list is empty




NASA's NSSDC Master Catalog

Two Line Element Set (TLE):
1 62351U 24243M   26033.72717339 0.00000000  00000-0  00000-0 0    08
2 62351  69.9990 259.8175 0003000 334.0267  25.9733 14.96713006    02
Source of the keplerian elements: McCants